STARLINK-36931, 68000

Orbit data source: Space-Track

STARLINK-36931, 68000 is a payload satellite owned by SpaceX/Seattle (US) in LEO that was launched on Fri, 27 Feb 2026 UTC via an FALCON 9 launch vehicle from the Air Force Eastern Test Range (AFETR). Payload-class satellites include a variety of spacecraft equipped with specific instruments for various scientific and technological missions. These include communications satellites like Starlink; space stations such as the ISS; scientific satellites like the Hubble; Earth observation satellites from companies like Planet Labs, Umbra, and HawkEye 360; GPS; miniature CubeSats for education and research; and military/defense satellites.

Loading next visibility...
Identifier
68000, 2026-039Q
Orbit
LEO
Country
Flag of USUS
Related business
Manufacturer
SpaceX/Seattle
Mission
Operational Commercial Communications
Bus & Motor
STARLINK V2MO, Unknown motor
Mass
575 kg wet, ~530 kg dry
Launch date (UTC)
2026-02-27 (2 months ago)
Launch vehicle
FALCON 9
Launch site
Air Force Eastern Test Range (AFETR)
Object type
Payload
Rocket body
Debris
Shape & HBR
Box + 2 Pan, 17.7 m
Radar Cross Section
36.964 m²

Expand to show TLE details & history
Last TLE update: 2 days ago

TLE from 2 days ago
0 STARLINK-36931
1 68000U 26039Q   26110.44048823  .00017675  00000-0  65020-3 0  9999
2 68000  42.9989 172.7027 0001353 245.8603 114.2107 15.27584309  8090
Epoch: 2026-04-20T10:34Z
TLE epoch observation values (Epoch: 2026-04-20T10:34:18.183Z)
Latitude
-0.00002°
Longitude
165.59633°
Altitude
483.192 km
Speed
7.625 km/s
True Right ascension
11h 30m 48s
True Declination
0° 00' 00"
Sunlit
Object was in full shadow at epoch
Visualization orbit readout
Latitude
Unknown
Longitude
Unknown
Altitude
Unknown
Speed
Unknown
Apparent Right ascension
Unknown
Apparent Declination
Unknown
Sunlit
N/A
Visualization observer readout
Local Sidereal Time
18:12:19
Azimuth
Unknown
Elevation
Unknown
Doppler factor
Unknown
Orbital elements
Apogee altitude
485.91 km
Perigee altitude
484.053 km
Semi-major axis
6,863.119 km
Eccentricity
0.00014
Inclination
42.9989°
RAAN
172.7027°
Arg. of periapsis
245.8603°
True anomaly
114.22484°
Mean anomaly
114.2107°
Eccentric anomaly
114.21777°
Mean motion
3.81734 °/min
Orbital period
94.31 mins
BSTAR
0.0006502
Loading maneuver chart data...
Computing Atmospheric mass density...
Loading historical data...
Loading historical data...
Loading historical data...
Loading historical data...
Loading historical data...
Loading historical data...
Loading historical data...

Documentation

Showing up to 5 results
|